| time (UTC) | temp F | wind direction | speed MPH | gust MPH | rain 1hr in | rain 24hr in | rain mn in | humidity % | barometer mb |
| 20260504174924 | 80 | 130 | 1.0 | 2.0 | 0.00 | 0.00 | 0.00 | 23 | 1016.9 |
| 20260504174422 | 80 | 247 | 1.0 | 2.0 | 0.00 | 0.00 | 0.00 | 23 | 1016.6 |
| 20260504173919 | 81 | 238 | 0.0 | 1.0 | 0.00 | 0.00 | 0.00 | 22 | 1016.6 |
| 20260504173416 | 79 | 347 | 0.0 | 2.0 | 0.00 | 0.00 | 0.00 | 22 | 1016.6 |
| 20260504172913 | 80 | 62 | 0.0 | 1.0 | 0.00 | 0.00 | 0.00 | 22 | 1016.6 |
| 20260504172409 | 80 | 220 | 0.0 | 1.0 | 0.00 | 0.00 | 0.00 | 22 | 1016.6 |
| 20260504171905 | 80 | 185 | 1.0 | 4.0 | 0.00 | 0.00 | 0.00 | 22 | 1016.6 |
| 20260504171403 | 80 | 90 | 0.0 | 1.0 | 0.00 | 0.00 | 0.00 | 23 | 1016.9 |
| 20260504170859 | 79 | 345 | 0.0 | 1.0 | 0.00 | 0.00 | 0.00 | 23 | 1016.6 |
| 20260504170356 | 78 | 84 | 0.0 | 1.0 | 0.00 | 0.00 | 0.00 | 24 | 1016.6 |
| 20260504160315 | 78 | 182 | 0.0 | 1.0 | 0.00 | 0.00 | 0.00 | 22 | 1017.3 |
| 20260504150739 | 78 | 282 | 0.0 | 2.0 | 0.00 | 0.00 | 0.00 | 25 | 1017.3 |
| 20260504150236 | 77 | 231 | 0.0 | 2.0 | 0.00 | 0.00 | 0.00 | 28 | 1017.3 |
| 20260504141206 | 74 | 339 | 0.0 | 1.0 | 0.00 | 0.00 | 0.00 | 34 | 1017.6 |
| 20260504140703 | 76 | 348 | 0.0 | 0.0 | 0.00 | 0.00 | 0.00 | 33 | 1017.6 |
| 20260504140158 | 72 | 326 | 0.0 | 0.0 | 0.00 | 0.00 | 0.00 | 33 | 1017.6 |
| 20260504130626 | 65 | 151 | 0.0 | 0.0 | 0.00 | 0.00 | 0.00 | 56 | 1017.6 |
| 20260504130123 | 64 | 145 | 0.0 | 0.0 | 0.00 | 0.00 | 0.00 | 61 | 1017.6 |
| 20260504110515 | 57 | 162 | 0.0 | 0.0 | 0.00 | 0.00 | 0.00 | 77 | 1016.6 |
| 20260504100436 | 59 | 161 | 0.0 | 0.0 | 0.00 | 0.00 | 0.00 | 70 | 1016.9 |
| 20260504081830 | 59 | 160 | 0.0 | 0.0 | 0.00 | 0.00 | 0.00 | 73 | 1016.9 |
| 20260504081326 | 59 | 160 | 0.0 | 0.0 | 0.00 | 0.00 | 0.00 | 72 | 1016.6 |
| 20260504080817 | 59 | 160 | 0.0 | 0.0 | 0.00 | 0.00 | 0.00 | 71 | 1016.9 |
| 20260504080314 | 59 | 160 | 0.0 | 0.0 | 0.00 | 0.00 | 0.00 | 71 | 1016.9 |
| 20260504070241 | 61 | 136 | 0.0 | 0.0 | 0.00 | 0.00 | 0.00 | 64 | 1017.3 |
| 20260504060202 | 61 | 136 | 0.0 | 0.0 | 0.00 | 0.00 | 0.00 | 62 | 1018.3 |
| 20260504050629 | 63 | 269 | 0.0 | 0.0 | 0.00 | 0.00 | 0.00 | 53 | 1018.6 |
| 20260504050127 | 63 | 269 | 0.0 | 0.0 | 0.00 | 0.00 | 0.00 | 54 | 1018.6 |
| 20260504045624 | 63 | 253 | 0.0 | 0.0 | 0.00 | 0.00 | 0.00 | 55 | 1018.6 |
| 20260504045124 | 63 | 253 | 0.0 | 0.0 | 0.00 | 0.00 | 0.00 | 55 | 1018.6 |
| 20260504044622 | 63 | 253 | 0.0 | 0.0 | 0.00 | 0.00 | 0.00 | 55 | 1018.6 |
| 20260504044118 | 64 | 253 | 0.0 | 0.0 | 0.00 | 0.00 | 0.00 | 54 | 1018.6 |
| 20260504043615 | 64 | 253 | 0.0 | 0.0 | 0.00 | 0.00 | 0.00 | 53 | 1018.6 |
| 20260504043113 | 64 | 252 | 0.0 | 0.0 | 0.00 | 0.00 | 0.00 | 52 | 1019.0 |
| 20260504042610 | 64 | 253 | 0.0 | 0.0 | 0.00 | 0.00 | 0.00 | 51 | 1019.0 |
| 20260504042107 | 64 | 253 | 0.0 | 0.0 | 0.00 | 0.00 | 0.00 | 50 | 1019.0 |
| 20260504041602 | 64 | 254 | 0.0 | 0.0 | 0.00 | 0.00 | 0.00 | 50 | 1019.0 |
| 20260504041059 | 64 | 185 | 0.0 | 0.0 | 0.00 | 0.00 | 0.00 | 47 | 1019.0 |
| 20260504040556 | 64 | 185 | 0.0 | 0.0 | 0.00 | 0.00 | 0.00 | 46 | 1019.0 |
| 20260504040053 | 64 | 185 | 0.0 | 0.0 | 0.00 | 0.00 | 0.00 | 45 | 1018.6 |
| 20260504035549 | 64 | 185 | 0.0 | 0.0 | 0.00 | 0.00 | 0.00 | 45 | 1018.6 |
| 20260504035046 | 65 | 185 | 0.0 | 0.0 | 0.00 | 0.00 | 0.00 | 45 | 1018.6 |
| 20260504034544 | 65 | 185 | 0.0 | 0.0 | 0.00 | 0.00 | 0.00 | 44 | 1019.0 |
| 20260504034035 | 65 | 185 | 0.0 | 0.0 | 0.00 | 0.00 | 0.00 | 44 | 1018.6 |
| 20260504033533 | 65 | 185 | 0.0 | 0.0 | 0.00 | 0.00 | 0.00 | 42 | 1019.0 |
| 20260504033030 | 66 | 185 | 0.0 | 0.0 | 0.00 | 0.00 | 0.00 | 41 | 1018.6 |
| 20260504032527 | 66 | 185 | 0.0 | 0.0 | 0.00 | 0.00 | 0.00 | 40 | 1019.0 |
| 20260504032024 | 66 | 185 | 0.0 | 0.0 | 0.00 | 0.00 | 0.00 | 39 | 1018.6 |
| 20260504031521 | 66 | 185 | 0.0 | 0.0 | 0.00 | 0.00 | 0.00 | 38 | 1019.0 |
| 20260504031017 | 67 | 182 | 0.0 | 0.0 | 0.00 | 0.00 | 0.00 | 38 | 1019.0 |
| 20260504030515 | 66 | 180 | 0.0 | 0.0 | 0.00 | 0.00 | 0.00 | 38 | 1019.0 |
| 20260504030010 | 66 | 180 | 0.0 | 0.0 | 0.00 | 0.00 | 0.00 | 38 | 1018.6 |
| 20260504025507 | 66 | 176 | 0.0 | 0.0 | 0.00 | 0.00 | 0.00 | 37 | 1018.6 |
| 20260504025004 | 66 | 176 | 0.0 | 0.0 | 0.00 | 0.00 | 0.00 | 37 | 1018.6 |
| 20260504024502 | 67 | 176 | 0.0 | 0.0 | 0.00 | 0.00 | 0.00 | 36 | 1018.3 |
| 20260504023959 | 67 | 176 | 0.0 | 0.0 | 0.00 | 0.00 | 0.00 | 36 | 1018.3 |
| 20260504023455 | 67 | 176 | 0.0 | 0.0 | 0.00 | 0.00 | 0.00 | 36 | 1018.3 |
| 20260504022951 | 67 | 170 | 0.0 | 0.0 | 0.00 | 0.00 | 0.00 | 36 | 1018.3 |
| 20260504022447 | 67 | 170 | 0.0 | 0.0 | 0.00 | 0.00 | 0.00 | 35 | 1018.6 |
| 20260504021943 | 67 | 172 | 0.0 | 0.0 | 0.00 | 0.00 | 0.00 | 35 | 1018.6 |
| 20260504021441 | 67 | 172 | 0.0 | 0.0 | 0.00 | 0.00 | 0.00 | 35 | 1018.3 |
| 20260504020938 | 67 | 170 | 0.0 | 0.0 | 0.00 | 0.00 | 0.00 | 35 | 1018.3 |
| 20260504020435 | 68 | 170 | 0.0 | 0.0 | 0.00 | 0.00 | 0.00 | 35 | 1018.3 |
| 20260504015931 | 68 | 170 | 0.0 | 0.0 | 0.00 | 0.00 | 0.00 | 35 | 1018.3 |
| 20260504015427 | 68 | 170 | 0.0 | 0.0 | 0.00 | 0.00 | 0.00 | 34 | 1018.0 |
| 20260504014923 | 68 | 170 | 0.0 | 0.0 | 0.00 | 0.00 | 0.00 | 33 | 1018.3 |
| 20260504014420 | 68 | 170 | 0.0 | 0.0 | 0.00 | 0.00 | 0.00 | 33 | 1018.0 |
| 20260504013916 | 68 | 170 | 0.0 | 0.0 | 0.00 | 0.00 | 0.00 | 33 | 1018.0 |
| 20260504013415 | 68 | 68 | 0.0 | 0.0 | 0.00 | 0.00 | 0.00 | 34 | 1018.0 |
| 20260504012911 | 68 | 68 | 0.0 | 0.0 | 0.00 | 0.00 | 0.00 | 35 | 1017.6 |
| 20260504012409 | 68 | 68 | 0.0 | 0.0 | 0.00 | 0.00 | 0.00 | 33 | 1017.6 |
| 20260504011906 | 68 | 68 | 0.0 | 0.0 | 0.00 | 0.00 | 0.00 | 33 | 1018.0 |
| 20260504011402 | 68 | 68 | 0.0 | 0.0 | 0.00 | 0.00 | 0.00 | 33 | 1017.6 |
| 20260504010858 | 69 | 68 | 0.0 | 0.0 | 0.00 | 0.00 | 0.00 | 32 | 1017.6 |
| 20260504010354 | 69 | 68 | 0.0 | 0.0 | 0.00 | 0.00 | 0.00 | 32 | 1017.6 |
| 20260504005851 | 69 | 68 | 0.0 | 0.0 | 0.00 | 0.00 | 0.00 | 32 | 1017.3 |
| 20260504005348 | 70 | 68 | 0.0 | 0.0 | 0.00 | 0.00 | 0.00 | 31 | 1017.6 |
| 20260504004845 | 70 | 68 | 0.0 | 0.0 | 0.00 | 0.00 | 0.00 | 29 | 1017.6 |
| 20260504004343 | 71 | 68 | 0.0 | 0.0 | 0.00 | 0.00 | 0.00 | 28 | 1017.3 |
| 20260504003839 | 73 | 68 | 0.0 | 0.0 | 0.00 | 0.00 | 0.00 | 31 | 1017.6 |
| 20260504003336 | 73 | 68 | 0.0 | 0.0 | 0.00 | 0.00 | 0.00 | 31 | 1017.3 |
| 20260504002833 | 74 | 68 | 0.0 | 0.0 | 0.00 | 0.00 | 0.00 | 34 | 1017.3 |
| 20260504002330 | 74 | 68 | 0.0 | 0.0 | 0.00 | 0.00 | 0.00 | 34 | 1017.6 |
| 20260504001827 | 75 | 68 | 0.0 | 0.0 | 0.00 | 0.00 | 0.00 | 33 | 1017.3 |
| 20260504001324 | 75 | 65 | 0.0 | 0.0 | 0.00 | 0.00 | 0.00 | 33 | 1017.3 |
| 20260504000821 | 75 | 121 | 0.0 | 0.0 | 0.00 | 0.00 | 0.00 | 32 | 1017.3 |
| 20260504000318 | 75 | 70 | 0.0 | 0.0 | 0.00 | 0.00 | 0.00 | 32 | 1017.3 |
| 20260503235816 | 75 | 267 | 0.0 | 0.0 | 0.00 | 0.00 | 0.00 | 31 | 1017.3 |
| 20260503235313 | 76 | 110 | 0.0 | 0.0 | 0.00 | 0.00 | 0.00 | 31 | 1017.3 |
| 20260503234811 | 76 | 134 | 0.0 | 0.0 | 0.00 | 0.00 | 0.00 | 31 | 1017.3 |
| 20260503234308 | 76 | 220 | 0.0 | 0.0 | 0.00 | 0.00 | 0.00 | 30 | 1017.3 |
| 20260503233806 | 77 | 332 | 0.0 | 0.0 | 0.00 | 0.00 | 0.00 | 30 | 1017.3 |
| 20260503233301 | 76 | 285 | 0.0 | 0.0 | 0.00 | 0.00 | 0.00 | 30 | 1017.6 |
| 20260503232759 | 77 | 359 | 0.0 | 0.0 | 0.00 | 0.00 | 0.00 | 30 | 1017.3 |
| 20260503232256 | 77 | 80 | 0.0 | 1.0 | 0.00 | 0.00 | 0.00 | 29 | 1017.6 |
| 20260503231754 | 77 | 62 | 0.0 | 0.0 | 0.00 | 0.00 | 0.00 | 28 | 1017.3 |
| 20260503231251 | 77 | 128 | 0.0 | 0.0 | 0.00 | 0.00 | 0.00 | 29 | 1017.6 |
| 20260503230746 | 77 | 124 | 0.0 | 1.0 | 0.00 | 0.00 | 0.00 | 28 | 1017.6 |
| 20260503230244 | 77 | 61 | 0.0 | 0.0 | 0.00 | 0.00 | 0.00 | 29 | 1018.0 |
| 20260503225741 | 77 | 292 | 0.0 | 2.0 | 0.00 | 0.00 | 0.00 | 28 | 1017.6 |
| 20260503225241 | 77 | 279 | 0.0 | 1.0 | 0.00 | 0.00 | 0.00 | 27 | 1017.6 |
| 20260503224738 | 77 | 145 | 0.0 | 1.0 | 0.00 | 0.00 | 0.00 | 26 | 1017.6 |
| 20260503224236 | 77 | 289 | 0.0 | 1.0 | 0.00 | 0.00 | 0.00 | 27 | 1017.6 |
| 20260503223734 | 77 | 121 | 0.0 | 1.0 | 0.00 | 0.00 | 0.00 | 25 | 1017.3 |
| 20260503223231 | 76 | 298 | 0.0 | 1.0 | 0.00 | 0.00 | 0.00 | 25 | 1017.6 |
| 20260503222727 | 76 | 31 | 0.0 | 0.0 | 0.00 | 0.00 | 0.00 | 24 | 1017.6 |
| 20260503222225 | 77 | 119 | 0.0 | 0.0 | 0.00 | 0.00 | 0.00 | 22 | 1018.0 |
| 20260503221724 | 77 | 93 | 0.0 | 2.0 | 0.00 | 0.00 | 0.00 | 22 | 1018.0 |
| 20260503221221 | 78 | 1 | 0.0 | 2.0 | 0.00 | 0.00 | 0.00 | 22 | 1018.0 |
| 20260503220717 | 79 | 266 | 0.0 | 2.0 | 0.00 | 0.00 | 0.00 | 22 | 1018.0 |
| 20260503220214 | 78 | 120 | 1.0 | 2.0 | 0.00 | 0.00 | 0.00 | 23 | 1018.0 |
| 20260503215710 | 79 | 93 | 0.0 | 1.0 | 0.00 | 0.00 | 0.00 | 22 | 1018.0 |
| 20260503215208 | 78 | 125 | 1.0 | 2.0 | 0.00 | 0.00 | 0.00 | 23 | 1018.0 |
| 20260503214706 | 78 | 121 | 2.0 | 3.0 | 0.00 | 0.00 | 0.00 | 22 | 1018.0 |
| 20260503214202 | 81 | 307 | 0.0 | 1.0 | 0.00 | 0.00 | 0.00 | 22 | 1018.3 |
| 20260503213701 | 80 | 125 | 1.0 | 3.0 | 0.00 | 0.00 | 0.00 | 22 | 1018.3 |
| 20260503213157 | 80 | 124 | 0.0 | 2.0 | 0.00 | 0.00 | 0.00 | 22 | 1018.3 |
| 20260503212654 | 78 | 124 | 0.0 | 3.0 | 0.00 | 0.00 | 0.00 | 22 | 1018.3 |
| 20260503212152 | 80 | 274 | 0.0 | 0.0 | 0.00 | 0.00 | 0.00 | 22 | 1018.6 |
| 20260503211650 | 78 | 104 | 0.0 | 0.0 | 0.00 | 0.00 | 0.00 | 22 | 1018.6 |
| 20260503211144 | 81 | 314 | 0.0 | 1.0 | 0.00 | 0.00 | 0.00 | 22 | 1018.6 |
| 20260503210641 | 79 | 329 | 0.0 | 1.0 | 0.00 | 0.00 | 0.00 | 22 | 1018.6 |
| 20260503210138 | 79 | 201 | 0.0 | 1.0 | 0.00 | 0.00 | 0.00 | 22 | 1019.0 |
| 20260503205634 | 78 | 92 | 2.0 | 4.0 | 0.00 | 0.00 | 0.00 | 22 | 1018.6 |
| 20260503205130 | 79 | 255 | 0.0 | 1.0 | 0.00 | 0.00 | 0.00 | 22 | 1019.0 |
| 20260503204622 | 78 | 147 | 1.0 | 1.0 | 0.00 | 0.00 | 0.00 | 23 | 1019.0 |
| 20260503204119 | 80 | 303 | 0.0 | 3.0 | 0.00 | 0.00 | 0.00 | 22 | 1019.3 |
| 20260503203616 | 79 | 5 | 1.0 | 2.0 | 0.00 | 0.00 | 0.00 | 22 | 1019.0 |
| 20260503203113 | 81 | 187 | 1.0 | 1.0 | 0.00 | 0.00 | 0.00 | 22 | 1019.3 |
| 20260503202610 | 79 | 126 | 1.0 | 1.0 | 0.00 | 0.00 | 0.00 | 22 | 1019.3 |
| 20260503202108 | 78 | 249 | 0.0 | 1.0 | 0.00 | 0.00 | 0.00 | 22 | 1019.0 |
| 20260503201606 | 82 | 122 | 0.0 | 2.0 | 0.00 | 0.00 | 0.00 | 22 | 1019.3 |
| 20260503201103 | 79 | 247 | 0.0 | 1.0 | 0.00 | 0.00 | 0.00 | 22 | 1019.6 |
| 20260503200600 | 79 | 138 | 1.0 | 2.0 | 0.00 | 0.00 | 0.00 | 22 | 1019.6 |
| 20260503200056 | 78 | 139 | 1.0 | 2.0 | 0.00 | 0.00 | 0.00 | 22 | 1019.6 |
| 20260503195554 | 78 | 74 | 2.0 | 2.0 | 0.00 | 0.00 | 0.00 | 23 | 1019.6 |
| 20260503195050 | 78 | 180 | 0.0 | 3.0 | 0.00 | 0.00 | 0.00 | 22 | 1019.6 |
| 20260503194548 | 80 | 113 | 1.0 | 2.0 | 0.00 | 0.00 | 0.00 | 22 | 1020.0 |
| 20260503194047 | 79 | 184 | 0.0 | 3.0 | 0.00 | 0.00 | 0.00 | 23 | 1019.6 |
| 20260503193544 | 79 | 100 | 1.0 | 1.0 | 0.00 | 0.00 | 0.00 | 22 | 1020.0 |
| 20260503193039 | 78 | 168 | 1.0 | 2.0 | 0.00 | 0.00 | 0.00 | 22 | 1020.0 |
| 20260503192536 | 79 | 127 | 1.0 | 1.0 | 0.00 | 0.00 | 0.00 | 22 | 1020.3 |
| 20260503192032 | 78 | 285 | 0.0 | 3.0 | 0.00 | 0.00 | 0.00 | 22 | 1020.0 |
| 20260503191528 | 78 | 118 | 1.0 | 3.0 | 0.00 | 0.00 | 0.00 | 22 | 1020.3 |
| 20260503191025 | 79 | 123 | 3.0 | 3.0 | 0.00 | 0.00 | 0.00 | 23 | 1020.3 |
| 20260503190522 | 78 | 124 | 1.0 | 3.0 | 0.00 | 0.00 | 0.00 | 22 | 1020.3 |
| 20260503190019 | 79 | 109 | 1.0 | 2.0 | 0.00 | 0.00 | 0.00 | 22 | 1020.3 |
| 20260503185515 | 78 | 143 | 0.0 | 1.0 | 0.00 | 0.00 | 0.00 | 22 | 1020.7 |
| 20260503185015 | 77 | 314 | 0.0 | 3.0 | 0.00 | 0.00 | 0.00 | 22 | 1020.7 |
| 20260503184512 | 78 | 317 | 0.0 | 2.0 | 0.00 | 0.00 | 0.00 | 22 | 1020.7 |
| 20260503184008 | 77 | 321 | 0.0 | 2.0 | 0.00 | 0.00 | 0.00 | 23 | 1020.7 |
| 20260503183505 | 78 | 181 | 0.0 | 2.0 | 0.00 | 0.00 | 0.00 | 23 | 1020.7 |
| 20260503183002 | 77 | 122 | 2.0 | 3.0 | 0.00 | 0.00 | 0.00 | 23 | 1021.0 |
| 20260503182501 | 78 | 359 | 1.0 | 2.0 | 0.00 | 0.00 | 0.00 | 23 | 1020.7 |
| 20260503181958 | 77 | 123 | 1.0 | 3.0 | 0.00 | 0.00 | 0.00 | 23 | 1020.7 |
| 20260503181455 | 77 | 102 | 0.0 | 2.0 | 0.00 | 0.00 | 0.00 | 22 | 1020.7 |
| 20260503180950 | 77 | 102 | 2.0 | 4.0 | 0.00 | 0.00 | 0.00 | 22 | 1020.7 |
| 20260503180449 | 77 | 147 | 0.0 | 1.0 | 0.00 | 0.00 | 0.00 | 23 | 1021.0 |
| 20260503175946 | 77 | 143 | 0.0 | 2.0 | 0.00 | 0.00 | 0.00 | 22 | 1021.0 |
| 20260503175444 | 77 | 82 | 2.0 | 2.0 | 0.00 | 0.00 | 0.00 | 22 | 1021.0 |